[[{"header":{"parameterUnit":"m.s-1","parameterCategory":1,"la1":30.2991,"la2":30.254,"lo1":-89.0895,"lo2":-89.0444,"dy":0.0017,"dx":0.0017,"nx":28,"ny":28,"refTime":"2023-08-15T03:00:00:Z","depth":0,"parameterNumber":2,"parameterNumberName":"U-component_of_WINDS"},"data":[0,0,0,0,0,0,0,0,0,0,0,0,0,0,0,0,0,0,0,0,0,0,0,0,0,0,0,0,0,0,0,0,0,0,0,0,0,0,0,0,0,0,0,0,0,0,0,0,0,0,0,0,0,0,0,0,0,0,2.4373,2.4374,0,2.4425,2.4425,2.4426,2.4396,2.4395,2.4394,2.4392,2.4451,2.4454,2.4457,0,0,0,0,0,0,0,0,0,0,0,0,0,2.4256,2.4258,2.4373,2.4374,2.4374,2.4425,2.4425,2.4426,2.4397,2.4395,2.4393,2.4391,2.445,2.4454,2.4457,0,0,0,0,0,0,0,0,0,0,0,0,0,2.4307,2.4259,2.4373,2.4366,2.4365,2.4425,2.4425,2.4426,2.4397,2.4395,2.4393,2.4391,2.4449,2.4454,2.4458,2.4529,0,0,2.4471,2.4473,0,0,0,0,0,0,0,0,2.4305,2.4312,2.4366,2.4366,2.4366,2.4402,2.4406,2.4461,2.4398,2.4385,2.4392,2.439,2.4437,2.4442,2.4457,2.4532,2.4534,2.4472,2.4474,2.4476,2.4478,0,0,0,0,0,0,0,2.4301,2.4309,2.4394,2.4367,2.4367,2.4362,2.4367,2.4416,2.4423,2.4386,2.4384,2.439,2.4437,2.4453,2.4458,2.4535,2.4472,2.4476,2.4478,2.448,2.4676,2.4678,0,0,0,0,0,0,2.4297,2.4307,2.4392,2.4395,2.4329,2.4366,2.4371,2.4393,2.4422,2.4425,2.4392,2.4389,2.4446,2.4453,2.446,2.4549,2.4476,2.448,2.4483,2.4673,2.4676,2.4679,0,0,0,0,0,0,2.4295,2.4305,2.439,2.435,2.4361,2.437,2.4394,2.4395,2.4411,2.4427,2.4429,2.4407,2.4445,2.4454,2.4513,2.455,2.4482,2.4486,2.467,2.4674,2.4678,2.4724,0,0,0,0,0,0,2.4291,2.4304,2.4329,2.4351,2.4363,2.4439,2.4397,2.4397,2.4418,2.4414,2.4441,2.4444,2.4444,2.4506,2.4517,2.4555,2.449,2.4667,2.4672,2.4676,2.4719,2.4729,2.4737,0,0,0,0,0,2.4287,2.4341,2.4331,2.4341,2.4394,2.4441,2.4449,2.4446,2.4421,2.4448,2.4459,2.4443,2.4544,2.4513,2.4524,2.4564,2.4665,2.467,2.4676,2.4715,2.4727,2.4737,0,0,0,0,0,0,2.4325,2.4343,2.4333,2.4394,2.4416,2.4436,2.447,2.4458,2.4489,2.4484,2.4482,2.4488,2.455,2.4563,2.4528,2.4637,2.4601,2.4609,2.4626,2.4638,2.4647,2.4643,2.4494,0,0,0,0,0,2.434,2.4374,2.439,2.4443,2.4454,2.446,2.4481,2.4477,2.4501,2.451,2.4525,2.4551,2.4588,2.4613,2.4649,2.472,2.4728,2.4754,2.4763,2.477,2.4778,2.4821,2.4834,2.4698,2.4698,2.4698,0,0,2.4372,2.4387,2.4409,2.4451,2.4467,2.4506,2.4469,2.451,2.454,2.4517,2.4574,2.4586,2.4614,2.4681,2.4711,2.4693,2.4817,2.4777,2.4783,2.4787,2.4828,2.4841,2.4852,2.4702,2.4701,2.47,0,0,2.4451,2.4464,2.4511,2.4529,2.4554,2.4558,2.457,2.4592,2.4599,2.4655,2.464,2.4676,2.474,2.4762,2.4782,2.4872,2.486,2.4883,2.4932,2.4973,2.4984,2.4993,2.5029,2.5041,2.4891,2.4891,2.4891,0,2.4489,2.4544,2.4538,2.4581,2.4602,2.4582,2.4632,2.465,2.4686,2.4702,2.4681,2.4763,2.4781,2.4854,2.4876,2.4891,2.4907,2.4881,2.4982,2.4992,2.5001,2.5035,2.5047,2.4894,2.4894,2.4893,2.4893,0,2.4591,2.463,2.4665,2.47,2.4724,2.4771,2.4774,2.48,2.4795,2.4802,2.4862,2.4882,2.4923,2.4939,2.4935,2.5013,2.5002,2.4982,2.4946,2.5017,2.5049,2.5061,2.4898,2.4897,2.4896,2.4896,0,0,2.4695,2.4727,2.474,2.4757,2.4784,2.4816,2.4863,2.4901,2.4925,2.4951,2.4993,2.5049,2.5031,2.5053,2.5051,2.5087,2.5162,2.5063,2.5064,2.5083,2.5253,2.527,2.5285,2.5153,2.5155,2.5157,2.5252,0,2.4778,2.4859,2.4855,2.4932,2.497,2.4952,2.4994,2.5017,2.5025,2.5061,2.5071,2.5111,2.5083,2.5097,2.5132,2.5145,2.5196,2.5138,2.5195,2.5197,2.5191,2.5301,2.5318,2.5407,2.5264,2.5266,2.5268,0,2.4886,2.4915,2.4995,2.502,2.5035,2.5072,2.5109,2.5142,2.5169,2.5173,2.5199,2.5191,2.5243,2.5204,2.5277,2.5237,2.5261,2.5271,2.5274,2.5282,2.5238,2.5314,2.5434,2.5449,2.5287,2.5285,2.5284,0,2.4958,2.5018,2.5074,2.5088,2.5117,2.5145,2.5158,2.5183,2.5207,2.524,2.5256,2.5295,2.5317,2.5348,2.5353,2.5323,2.5427,2.5388,2.5435,2.5435,2.5459,2.5458,2.5588,2.547,2.547,2.547,2.5469,0,2.5053,2.5104,2.5107,2.5142,2.5199,2.5196,2.5253,2.5265,2.5287,2.5327,2.5314,2.5351,2.5354,2.5393,2.5397,2.5459,2.5468,2.5476,2.5477,2.5478,2.5478,2.5495,2.5491,2.5473,2.5472,2.5472,2.5471,0,2.5144,2.5148,2.5209,2.5231,2.5238,2.528,2.53,2.5335,2.5342,2.5393,2.5404,2.5417,2.5463,2.547,2.5524,2.5527,2.5602,2.5596,2.5593,2.5593,2.5641,2.5637,2.5789,2.581,2.5675,2.5677,2.5678,0,2.5206,2.5244,2.5271,2.5295,2.531,2.535,2.5374,2.5374,2.54,2.5435,2.5467,2.5511,2.5547,2.5622,2.5638,2.5681,2.5677,2.5727,2.5683,2.5685,2.5681,2.568,2.5686,2.5736,2.5738,2.5739,2.574,0,2.5316,2.5316,2.5351,2.5388,2.5417,2.5446,2.5474,2.5495,2.5498,2.553,2.5576,2.5603,2.5659,2.5705,2.5747,2.5764,2.5755,2.5753,2.5767,2.577,2.5768,2.5773,2.5619,2.575,2.5749,2.5748,2.5748,2.5747,2.5396,2.5431,2.5455,2.5496,2.5516,2.5543,2.5577,2.5589,2.5627,2.5671,2.5668,2.572,2.575,2.5805,2.5826,2.5868,2.5852,2.5871,2.5877,2.5882,2.5888,2.5759,2.5876,2.5875,2.5875,2.5875,2.5875,0,2.5508,2.5523,2.556,2.5599,2.5632,2.5616,2.5647,2.5676,2.5721,2.5748,2.5783,2.5839,2.5883,2.5903,2.5947,2.5978,2.5975,2.599,2.599,2.5995,2.5898,2.5883,2.5993,2.5993,2.5992,2.5992,2.5992,2.5992,2.5571,2.5629,2.5633,2.5703,2.5718,2.5767,2.5787,2.5812,2.5834,2.5895,2.5932,2.5943,2.5969,2.6016,2.6057,2.6062,2.6081,2.6099,2.6102,2.6013,2.6001,2.599,2.5976,2.6102,2.6102,2.6195,2.6196,2.6197]},{"header":{"parameterUnit":"m.s-1","parameterCategory":1,"la1":30.2991,"la2":30.254,"lo1":-89.0895,"lo2":-89.0444,"dy":0.0017,"dx":0.0017,"nx":28,"ny":28,"refTime":"2023-08-15T03:00:00:Z","depth":0,"parameterNumber":3,"parameterNumberName":"V-component_of_WINDS"},"data":[0,0,0,0,0,0,0,0,0,0,0,0,0,0,0,0,0,0,0,0,0,0,0,0,0,0,0,0,0,0,0,0,0,0,0,0,0,0,0,0,0,0,0,0,0,0,0,0,0,0,0,0,0,0,0,0,0,0,2.6293,2.6294,0,2.6387,2.6388,2.6389,2.6409,2.6408,2.6408,2.6407,2.6498,2.6501,2.6504,0,0,0,0,0,0,0,0,0,0,0,0,0,2.6124,2.6127,2.6293,2.6294,2.6296,2.6387,2.6388,2.639,2.6409,2.6408,2.6407,2.6407,2.6497,2.6501,2.6505,0,0,0,0,0,0,0,0,0,0,0,0,0,2.6205,2.6128,2.6293,2.6316,2.6319,2.6387,2.6388,2.639,2.6409,2.6408,2.6407,2.6406,2.6496,2.6501,2.6505,2.6554,0,0,2.6519,2.6521,0,0,0,0,0,0,0,0,2.6201,2.6211,2.6312,2.6315,2.6318,2.6385,2.6362,2.6445,2.6409,2.6375,2.6407,2.6406,2.6461,2.6469,2.6488,2.6559,2.6563,2.652,2.6523,2.6525,2.6526,0,0,0,0,0,0,0,2.6195,2.6208,2.633,2.6313,2.6317,2.632,2.633,2.6378,2.6423,2.6378,2.638,2.6391,2.6463,2.6484,2.6491,2.6564,2.652,2.6524,2.6527,2.6528,2.6675,2.6676,0,0,0,0,0,0,2.6186,2.6203,2.6327,2.6333,2.6256,2.6324,2.6336,2.6365,2.6422,2.643,2.6391,2.6391,2.6477,2.6485,2.6494,2.6553,2.6525,2.6529,2.6532,2.6674,2.6675,2.6676,0,0,0,0,0,0,2.6182,2.6197,2.6324,2.6268,2.6285,2.6328,2.6361,2.6367,2.6388,2.6433,2.644,2.6405,2.6476,2.6488,2.6539,2.6556,2.6531,2.6535,2.6672,2.6674,2.6676,2.6672,0,0,0,0,0,0,2.6177,2.6196,2.6217,2.6269,2.6288,2.6369,2.6362,2.637,2.6397,2.6398,2.6447,2.6455,2.6476,2.6532,2.6543,2.6562,2.6539,2.6671,2.6673,2.6675,2.6671,2.6674,2.6676,0,0,0,0,0,2.6171,2.6212,2.6218,2.6233,2.6315,2.637,2.638,2.6406,2.6398,2.6418,2.6446,2.6453,2.6553,2.6537,2.655,2.6571,2.667,2.6672,2.6675,2.667,2.6673,2.6676,0,0,0,0,0,0,2.616,2.6219,2.6226,2.6286,2.6322,2.6373,2.64,2.6409,2.6448,2.6446,2.6475,2.6486,2.6534,2.6558,2.6539,2.6619,2.661,2.6616,2.6602,2.6606,2.6608,2.6601,2.6543,0,0,0,0,0,2.6165,2.6206,2.6255,2.6302,2.632,2.6356,2.6381,2.6397,2.6436,2.6452,2.6483,2.6519,2.6558,2.6583,2.6622,2.6674,2.6684,2.6695,2.6697,2.6699,2.6703,2.6729,2.6733,2.6684,2.6684,2.6684,0,0,2.6174,2.6211,2.6236,2.63,2.6331,2.637,2.637,2.6412,2.6441,2.6458,2.6508,2.6532,2.6573,2.6624,2.6648,2.6645,2.6718,2.6702,2.6703,2.6706,2.6732,2.6736,2.674,2.6686,2.6686,2.6685,0,0,2.6211,2.6245,2.6287,2.6317,2.6363,2.6387,2.6396,2.6445,2.6462,2.6513,2.6525,2.6558,2.6626,2.6654,2.6677,2.6721,2.6727,2.6732,2.6745,2.677,2.6774,2.6777,2.679,2.6795,2.6736,2.6736,2.6736,0,2.6217,2.6279,2.6306,2.6348,2.6374,2.6392,2.6432,2.6459,2.6515,2.6532,2.6528,2.6611,2.664,2.6696,2.6707,2.6726,2.6735,2.6727,2.6771,2.6775,2.6779,2.6791,2.6796,2.6736,2.6736,2.6736,2.6736,0,2.6282,2.6324,2.6352,2.6406,2.6436,2.6476,2.6507,2.6533,2.6546,2.6568,2.6617,2.6653,2.6698,2.6712,2.6725,2.6769,2.6765,2.6766,2.6758,2.6783,2.6795,2.6801,2.6737,2.6737,2.6736,2.6736,0,0,2.6316,2.6383,2.6392,2.6416,2.6467,2.6499,2.6538,2.6583,2.6603,2.664,2.6672,2.6727,2.6727,2.6753,2.6769,2.6791,2.682,2.6789,2.679,2.6791,2.6867,2.6865,2.6871,2.6825,2.6826,2.6827,2.6863,0,2.6358,2.6431,2.6455,2.6516,2.6553,2.6568,2.6602,2.6635,2.6657,2.669,2.6713,2.6751,2.6749,2.6764,2.6787,2.6812,2.6835,2.6809,2.6852,2.6853,2.684,2.6878,2.6877,2.691,2.6868,2.6869,2.687,0,2.6417,2.6455,2.6519,2.6562,2.6579,2.6609,2.665,2.6682,2.6719,2.6733,2.676,2.6774,2.6812,2.6802,2.6854,2.6836,2.6854,2.6869,2.687,2.6875,2.6862,2.6881,2.6921,2.6925,2.6878,2.6877,2.6877,0,2.6432,2.6499,2.6546,2.6565,2.6618,2.6638,2.666,2.6696,2.672,2.6755,2.677,2.6809,2.6829,2.6857,2.6879,2.687,2.6928,2.692,2.6938,2.6938,2.695,2.6948,2.6991,2.6964,2.6964,2.6963,2.6963,0,2.6475,2.6513,2.6553,2.6581,2.6622,2.6648,2.6688,2.6711,2.6742,2.6773,2.6788,2.6816,2.6844,2.6875,2.6892,2.693,2.694,2.695,2.6954,2.6949,2.6947,2.696,2.6958,2.6965,2.6965,2.6964,2.6964,0,2.6499,2.6528,2.6579,2.6624,2.6635,2.6664,2.6701,2.6727,2.6749,2.6787,2.6797,2.683,2.6867,2.6892,2.6939,2.695,2.6991,2.6996,2.6979,2.6981,2.6997,2.6994,2.7049,2.7057,2.7025,2.7025,2.7026,0,2.6524,2.6554,2.6601,2.6624,2.6646,2.6682,2.6707,2.6732,2.6756,2.6798,2.6819,2.6857,2.6888,2.6946,2.6972,2.7007,2.7011,2.7028,2.7017,2.7009,2.7009,2.7007,2.7009,2.703,2.703,2.703,2.703,0,2.6565,2.6577,2.6613,2.6652,2.6681,2.6713,2.6745,2.6762,2.6792,2.6818,2.6856,2.6881,2.6928,2.6965,2.7002,2.7022,2.703,2.7033,2.7039,2.7033,2.7022,2.7026,2.6983,2.7032,2.7032,2.7032,2.7032,2.7032,2.6589,2.6615,2.6652,2.669,2.6716,2.6745,2.6772,2.6796,2.6829,2.687,2.6883,2.6921,2.6954,2.7005,2.7025,2.7054,2.7052,2.7061,2.7063,2.7065,2.7063,2.7018,2.7061,2.7061,2.7061,2.7061,2.7061,0,2.6628,2.6652,2.6687,2.6732,2.6761,2.6767,2.6802,2.6825,2.686,2.689,2.6921,2.6963,2.6997,2.7026,2.7061,2.7079,2.7083,2.7087,2.7085,2.7089,2.7064,2.7055,2.7082,2.7082,2.7082,2.7082,2.7082,2.7082,2.6652,2.6695,2.6711,2.6766,2.6789,2.6829,2.6848,2.6873,2.6897,2.6944,2.6974,2.6992,2.7021,2.7058,2.7089,2.7096,2.7107,2.711,2.7118,2.7094,2.7091,2.7089,2.708,2.7113,2.7113,2.714,2.714,2.7141]}]]